Regional Weather Roundup
Issued by NWS

Home | Current Version | Previous Version | Graphics & Text | Print | Product List | Glossary Off
Versions: 1 2 3 4 5 6 7 8 9 10 11 12 13 14 15 16 17 18 19 20 21 22 23 24 25 26 27 28 29 30 31 32 33 34 35 36 37 38 39 40 41 42 43 44 45 46 47 48 49 50

000
ASUS43 KMKX 181721
RWRWI

WISCONSIN REGIONAL WEATHER ROUNDUP
NATIONAL WEATHER SERVICE MILWAUKEE/SULLIVAN WI
1200 PM CDT THU SEP 18 2014

NOTE: "FAIR" INDICATES FEW OR NO CLOUDS BELOW 12,000 FEET WITH NO
SIGNIFICANT WEATHER AND/OR OBSTRUCTIONS TO VISIBILITY.

WIZ001-002-006>008-014>016-023>028-181800-
NORTHWEST WISCONSIN

CITY           SKY/WX    TMP DP  RH WIND       PRES   REMARKS
SUPERIOR ARPT  CLOUDY    48  42  79 E6        30.16F
ASHLAND        CLOUDY    49  42  77 N3        30.19S
HAYWARD        CLOUDY    51  47  86 SE8       30.16R
SIREN          CLOUDY    54  50  86 SE6       30.13S
RICE LAKE      CLOUDY    51  47  86 SE9       30.17R
LADYSMITH      CLOUDY    51  47  87 SE7       30.18S
EAU CLAIRE     CLOUDY    53  49  86 SE8       30.16R
MENOMONIE      CLOUDY    54  51  89 SE7       30.16R
NEW RICHMOND   CLOUDY    57  53  88 SE8       30.13S
OSCEOLA        CLOUDY    56  55  94 SE9       30.15S
$$

WIZ003>005-009-010-017-018-181800-
NORTH CENTRAL WISCONSIN

CITY           SKY/WX    TMP DP  RH WIND       PRES   REMARKS
WOODRUFF       CLOUDY    46  40  82 S6        30.19S
RHINELANDER    CLOUDY    45  39  79 S6        30.20S
EAGLE RIVER    CLOUDY    47  38  68 SE7       30.18F
LAND O LAKES   CLOUDY    49  39  67 S6        30.19F
PHILLIPS       CLOUDY    48  44  88 SE6       30.17S
TOMAHAWK       CLOUDY    46  42  84 S3        30.20S
MEDFORD        CLOUDY    45  44  93 SE5       30.18F
MERRILL        CLOUDY    46  41  83 S5        30.21R
$$

WIZ029-030-035-036-043>047-181800-
CENTRAL WISCONSIN

CITY           SKY/WX    TMP DP  RH WIND       PRES   REMARKS
WAUSAU         CLOUDY    47  41  80 S8        30.20S
MOSINEE        CLOUDY    46  45  93 E3        30.22S
MARSHFIELD     CLOUDY    48  44  86 SE10      30.19S
STEVENS POINT  CLOUDY    46  41  85 SE7       30.21F
WAUPACA        CLOUDY    51  44  77 E3        30.22F
WAUTOMA        CLOUDY    52  45  76 CALM      30.21F
WISC RAPIDS    CLOUDY    49  45  86 SE6       30.21F
CAMP DOUGLAS   NOT AVBL
$$

WIZ011>013-019>022-031-037>040-048>050-181800-
NORTHEAST WISCONSIN

CITY           SKY/WX    TMP DP  RH WIND       PRES   REMARKS
ANTIGO         CLOUDY    46  40  81 S7        30.21S
STURGEON BAY   CLOUDY    52  43  71 N8        30.22S
GREEN BAY      CLOUDY    52  43  71 N5        30.22S
MANITOWOC      CLOUDY    54  46  74 VRB3      30.21S
APPLETON       PTSUNNY   52  41  66 NE6       30.22S
CLINTONVILLE   CLOUDY    48  41  76 CALM      30.22F
OSHKOSH        CLOUDY    52  46  80 E7        30.21R
$$

WIZ032>034-041-042-053>061-181800-
SOUTHWEST WISCONSIN

CITY           SKY/WX    TMP DP  RH WIND       PRES   REMARKS
LA CROSSE      PTSUNNY   60  52  74 E5        30.15F
SPARTA         CLOUDY    56  51  85 E8        30.18S
VIROQUA        CLOUDY    55  55  99 E7        30.17S
BOSCOBEL       CLOUDY    60  52  74 E6        30.17F
PRAIRIE DU CHI SUNNY     63  53  68 E6        30.14F
PLATTEVILLE    FAIR      63  54  73 CALM      30.16F
$$

WIZ056-057-062-063-064-067-068-181800-
SOUTH CENTRAL WISCONSIN

CITY           SKY/WX    TMP DP  RH WIND       PRES   REMARKS
BARABOO/DELLS  CLOUDY    52  48  87 E6        30.19F
LONE ROCK      CLOUDY    59  51  75 E6        30.18F
WATERTOWN      CLOUDY    53  51  92 CALM      30.19F
MADISON        CLOUDY    53  49  86 E6        30.19S
MIDDLETON      CLOUDY    55  53  95 SE6       30.20S
MONROE         CLOUDY    54  50  87 E5        30.17S FOG
JANESVILLE     CLOUDY    57  54  88 NE6       30.18S
$$

WIZ051-052-058>065-066-070>072-181800-
SOUTHEAST WISCONSIN

CITY           SKY/WX    TMP DP  RH WIND       PRES   REMARKS
MILWAUKEE      CLOUDY    57  50  77 N12       30.19S
WAUKESHA       CLOUDY    55  52  88 CALM      30.20R
MILWAUKEE/TIMM CLOUDY    57  48  72 NE6       30.20R
RACINE         CLOUDY    58  52  80 N13       30.20R
BURLINGTON     CLOUDY    58  51  78 E3        30.18S
KENOSHA        CLOUDY    60  54  80 NE6       30.18S
FOND DU LAC    CLOUDY    54  45  71 E5        30.21S
SHEBOYGAN      CLOUDY    56  47  71 NE7       30.20S
WEST BEND      CLOUDY    54  46  76 N5        30.19F
JUNEAU         CLOUDY    53  48  84 CALM      30.21S
$$

LSZ147-162-181800-
LAKE SUPERIOR

STATION/POSITION TIME  TEMP    WIND        PRES    WAVE
                       AIR SEA DIR/SP/G            HT/PER
                 (UTC) (F)     (DEG/KT/KT) (MB)    (FT/S)
W MID LAKE BUOY  1650   44 47  130/ 10/ 14 1023.4S   1/ 3
DEVILS ISLAND    1700   44      80/ 11/ 13 1023.0F
PORT WING        1600   52      50/  4/  7 1022.0S
SAXON HARBOR     1600   47      10/  2/  4 1022.4R
$$

LMZ867-665-643>646-181800-
LAKE MICHIGAN

STATION/POSITION TIME  TEMP    WIND        PRES    WAVE
                       AIR SEA DIR/SP/G            HT/PER
                 (UTC) (F)     (DEG/KT/KT) (MB)    (FT/S)
N MID LAKE BUOY  1650   50 58   70/  8/ 12 1023.7R   1/ 3
NORTHPORT PIER   1600   50      50/  5/  9 1023.4R
KEWAUNEE LAKESHO 1700   52      40/  7/  9 1022.1S
SHEBOYGAN LAKESH 1700   49 48   20/ 10/ 10 1023.3R
PORT WASHINGTON  1600   55      30/  4/  8 1023.0R
ATWATER BUOY     1700   55      10/ 12/ 16 1022.9R
MILWAUKEE LAKESH 1700   54      10/ 12/ 15   N/A
S MID LAKE BUOY  1650   62 63  220/  4/  6 1021.4R   3/ 7
KENOSHA   LAKESH 1700   57      10/  8/ 10 1021.7S
$$

TC  - TEMPERATURE IN CELSIUS
VSB - VISIBILITY IN STATUTE MILES
WCI - WIND CHILL INDEX
HX  - HEAT INDEX




USA.gov is the U.S. government's official web portal to all federal, state and local government web resources and services.